DECAYED

COSMOS 2251 DEB, 37977 (Decayed)

Orbit data source: Space-Track

COSMOS 2251 DEB, 37977 was space debris in LEO originally from a launch on Wed, 16 Jun 1993 UTC launched from the Plesetsk Missile And Space Complex (PKMTR). The debris from Iridium 33, an American commercial communications satellite, has been tracked extensively since its accidental collision with the defunct Russian satellite Cosmos 2251 in 2009. This event, occurring at high speed in low Earth orbit (LEO), generated thousands of pieces of space debris, significantly increasing the risk of further collisions. The Iridium 33 debris cloud has impacted space traffic management and orbital debris mitigation strategies, making it a subject of ongoing study in space situational awareness.

Not visible in the next 10 days
Identifier
37977, 1993-036BQC
Orbit
Decayed
Country
Flag of CISCIS
Related business
Manufacturer
Unknown
Mission
Decayed spacecraft
Bus & Motor
Unknown
Mass
Unknown
Launch date (UTC)
1993-06-16 (33 years ago)
Launch vehicle
Unknown
Launch site
Plesetsk Missile And Space Complex (PKMTR)
Object type
Payload
Rocket body
Debris
Shape & HBR
Unknown shape, 0.1 m
Radar Cross Section
Small (<0.1 m²)

Expand to show TLE details & history
Last TLE update: 1 year ago

TLE from 1 year ago
0 COSMOS 2251 DEB
1 37977U 93036BQC 24364.45246331  .00180197  00000-0  13759-1 0  9993
2 37977  73.9672  41.4916 0024400 290.9669  68.8907 15.00778693765984
Epoch: 2024-12-29T10:51Z
TLE epoch observation values (Epoch: 2024-12-29T10:51:32.829Z)
Latitude
0.00001°
Longitude
140.21622°
Altitude
561.113 km
Speed
7.584 km/s
True Right ascension
02h 45m 57s
True Declination
0° 00' 00"
Sunlit
Object was in full shadow at epoch
Visualization orbit readout
Latitude
Unknown
Longitude
Unknown
Altitude
Unknown
Speed
Unknown
Apparent Right ascension
Unknown
Apparent Declination
Unknown
Sunlit
N/A
Visualization observer readout
Local Sidereal Time
18:15:24
Azimuth
Unknown
Elevation
Unknown
Doppler factor
Unknown
Orbital elements
Apogee altitude
578.987 km
Perigee altitude
545.119 km
Semi-major axis
6,940.19 km
Eccentricity
0.00244
Inclination
73.9672°
RAAN
41.4916°
Arg. of periapsis
290.9669°
True anomaly
69.15183°
Mean anomaly
68.8907°
Eccentric anomaly
69.02123°
Mean motion
3.75393 °/min
Orbital period
95.9 mins
BSTAR
0.013759
Loading maneuver chart data...
Computing Atmospheric mass density...

Documentation

Showing up to 5 results
|